When you browse on this site, cookies collect data to enhance your experience and personalize the content and advertising you see.
Visit our Privacy Policy to learn more. By continuing to use the site, you agree to this use of cookies and data.
  • In Schweiz
  • Länderverzeichnis
  • Für 7 Tage
  • Wassertemperatur
  • Wetterkarte
  • Widgets
  • user-avatar
    Anmelden

    Stündliche Wetter Völklingen

    Heute, 5 Juni, Freitag

    Zeit Temperatur Niederschläge Wind Luftdruck Luftfeuchtigkeit
    00:00 +8°C° 0 mm 2 m/S 728 mmHg 93%
    01:00 +8°C° 0 mm 2 m/S 728 mmHg 92%
    02:00 +8°C° 0 mm 2 m/S 728 mmHg 92%
    03:00 +8°C° 0 mm 2 m/S 728 mmHg 91%
    04:00 +8°C° 0 mm 2 m/S 728 mmHg 88%
    05:00 +9°C° 0 mm 2 m/S 728 mmHg 84%
    06:00 +10°C° 0 mm 3 m/S 728 mmHg 81%
    07:00 +11°C° 0.2 mm 4 m/S 728 mmHg 79%
    08:00 +12°C° 0.2 mm 5 m/S 728 mmHg 78%
    09:00 +11°C° 0.2 mm 6 m/S 728 mmHg 76%
    10:00 +10°C° 0.3 mm 6 m/S 727 mmHg 81%
    11:00 +10°C° 0.3 mm 7 m/S 727 mmHg 86%
    12:00 +9°C° 0.3 mm 7 m/S 726 mmHg 91%
    13:00 +9°C° 1.2 mm 7 m/S 726 mmHg 92%
    14:00 +9°C° 1.2 mm 8 m/S 726 mmHg 94%
    15:00 +9°C° 1.2 mm 8 m/S 726 mmHg 95%
    16:00 +10°C° 0.8 mm 7 m/S 726 mmHg 93%
    17:00 +10°C° 0.8 mm 6 m/S 727 mmHg 90%
    18:00 +10°C° 0.8 mm 6 m/S 727 mmHg 88%
    19:00 +9°C° 0.1 mm 5 m/S 728 mmHg 88%
    20:00 +8°C° 0.1 mm 4 m/S 729 mmHg 88%
    21:00 +7°C° 0.1 mm 4 m/S 729 mmHg 88%
    22:00 +9°C° 0 mm 3 m/S 729 mmHg 89%
    23:00 +9°C° 0 mm 3 m/S 729 mmHg 90%

    Morgen, 6 Juni, Samstag

    Zeit Temperatur Niederschläge Wind Luftdruck Luftfeuchtigkeit
    00:00 +9°C° 0 mm 3 m/S 729 mmHg 90%
    01:00 +9°C° 0.1 mm 3 m/S 729 mmHg 90%
    02:00 +9°C° 0.1 mm 3 m/S 729 mmHg 90%
    03:00 +8°C° 0.1 mm 4 m/S 729 mmHg 91%
    04:00 +8°C° 0.6 mm 4 m/S 729 mmHg 92%
    05:00 +8°C° 0.6 mm 4 m/S 730 mmHg 93%
    06:00 +8°C° 0.6 mm 4 m/S 730 mmHg 95%
    07:00 +10°C° 0.4 mm 4 m/S 730 mmHg 93%
    08:00 +10°C° 0.4 mm 4 m/S 730 mmHg 90%
    09:00 +11°C° 0.4 mm 4 m/S 730 mmHg 88%
    10:00 +13°C° 0.1 mm 5 m/S 730 mmHg 78%
    11:00 +14°C° 0.1 mm 6 m/S 730 mmHg 67%
    12:00 +16°C° 0.1 mm 7 m/S 730 mmHg 56%
    13:00 +16°C° 0.1 mm 7 m/S 731 mmHg 56%
    14:00 +16°C° 0.1 mm 7 m/S 731 mmHg 56%
    15:00 +16°C° 0.1 mm 7 m/S 731 mmHg 56%
    16:00 +15°C° 0 mm 6 m/S 731 mmHg 59%
    17:00 +14°C° 0 mm 5 m/S 731 mmHg 63%
    18:00 +13°C° 0 mm 4 m/S 731 mmHg 66%
    19:00 +12°C° 0 mm 4 m/S 732 mmHg 72%
    20:00 +10°C° 0 mm 3 m/S 732 mmHg 77%
    21:00 +9°C° 0 mm 3 m/S 733 mmHg 82%
    22:00 +9°C° 0 mm 2 m/S 733 mmHg 83%
    23:00 +8°C° 0 mm 2 m/S 733 mmHg 85%

    übermorgen, 7 Juni, Sonntag

    Zeit Temperatur Niederschläge Wind Luftdruck Luftfeuchtigkeit
    00:00 +8°C° 0 mm 2 m/S 733 mmHg 86%
    01:00 +7°C° 0 mm 2 m/S 733 mmHg 87%
    02:00 +6°C° 0 mm 2 m/S 734 mmHg 89%
    03:00 +6°C° 0 mm 2 m/S 734 mmHg 91%
    04:00 +7°C° 0 mm 3 m/S 734 mmHg 86%
    05:00 +8°C° 0 mm 3 m/S 734 mmHg 81%
    06:00 +9°C° 0 mm 3 m/S 735 mmHg 76%
    07:00 +10°C° 0 mm 3 m/S 735 mmHg 72%
    08:00 +12°C° 0 mm 3 m/S 735 mmHg 68%
    09:00 +14°C° 0 mm 3 m/S 735 mmHg 65%
    10:00 +14°C° 0 mm 3 m/S 735 mmHg 65%
    11:00 +14°C° 0 mm 3 m/S 735 mmHg 65%
    12:00 +16°C° 0 mm 3 m/S 735 mmHg 65%
    13:00 +16°C° 0.1 mm 2 m/S 735 mmHg 63%
    14:00 +17°C° 0.1 mm 2 m/S 735 mmHg 61%
    15:00 +18°C° 0.1 mm 2 m/S 735 mmHg 59%
    16:00 +18°C° 0.1 mm 1 m/S 735 mmHg 65%
    17:00 +18°C° 0.1 mm 1 m/S 735 mmHg 70%
    18:00 +16°C° 0.1 mm 1 m/S 735 mmHg 76%
    19:00 +14°C° 0.1 mm 0 m/S 735 mmHg 79%
    20:00 +12°C° 0.1 mm 0 m/S 735 mmHg 82%
    21:00 +10°C° 0.1 mm 0 m/S 736 mmHg 85%
    22:00 +9°C° 0 mm 0 m/S 736 mmHg 85%
    23:00 +9°C° 0 mm 0 m/S 736 mmHg 86%

    8 Juni, Montag

    Zeit Temperatur Niederschläge Wind Luftdruck Luftfeuchtigkeit
    00:00 +9°C° 0 mm 0 m/S 736 mmHg 87%
    01:00 +8°C° 0 mm 0 m/S 736 mmHg 88%
    02:00 +8°C° 0 mm 0 m/S 736 mmHg 89%
    03:00 +7°C° 0 mm 0 m/S 736 mmHg 90%
    04:00 +9°C° 0 mm 0 m/S 736 mmHg 88%
    05:00 +10°C° 0 mm 0 m/S 736 mmHg 86%
    06:00 +12°C° 0 mm 0 m/S 736 mmHg 84%
    07:00 +13°C° 0.3 mm 0 m/S 737 mmHg 79%
    08:00 +15°C° 0.3 mm 0 m/S 737 mmHg 74%
    09:00 +17°C° 0.3 mm 0 m/S 737 mmHg 69%
    10:00 +20°C° 0.3 mm 1 m/S 737 mmHg 64%
    11:00 +21°C° 0.3 mm 1 m/S 737 mmHg 58%
    12:00 +22°C° 0.3 mm 1 m/S 737 mmHg 53%
    13:00 +21°C° 0.5 mm 1 m/S 736 mmHg 58%
    14:00 +21°C° 0.5 mm 1 m/S 736 mmHg 62%
    15:00 +20°C° 0.5 mm 1 m/S 736 mmHg 67%
    16:00 +20°C° 0.5 mm 1 m/S 736 mmHg 72%
    17:00 +19°C° 0.5 mm 1 m/S 736 mmHg 77%
    18:00 +18°C° 0.5 mm 1 m/S 736 mmHg 81%
    19:00 +16°C° 0 mm 1 m/S 737 mmHg 83%
    20:00 +14°C° 0 mm 1 m/S 737 mmHg 84%
    21:00 +13°C° 0 mm 1 m/S 737 mmHg 85%
    22:00 +12°C° 0 mm 1 m/S 737 mmHg 86%
    23:00 +12°C° 0 mm 1 m/S 737 mmHg 87%

    9 Juni, Dienstag

    Zeit Temperatur Niederschläge Wind Luftdruck Luftfeuchtigkeit
    00:00 +12°C° 0 mm 1 m/S 737 mmHg 88%
    01:00 +11°C° 0 mm 1 m/S 738 mmHg 88%
    02:00 +11°C° 0 mm 1 m/S 738 mmHg 89%
    03:00 +11°C° 0 mm 1 m/S 738 mmHg 89%
    04:00 +12°C° 0 mm 1 m/S 738 mmHg 88%
    05:00 +13°C° 0 mm 1 m/S 738 mmHg 86%
    06:00 +14°C° 0 mm 1 m/S 739 mmHg 85%
    07:00 +15°C° 0.1 mm 1 m/S 739 mmHg 80%
    08:00 +18°C° 0.1 mm 1 m/S 739 mmHg 74%
    09:00 +18°C° 0.1 mm 2 m/S 739 mmHg 69%
    10:00 +19°C° 0.4 mm 2 m/S 739 mmHg 70%
    11:00 +19°C° 0.4 mm 3 m/S 739 mmHg 72%
    12:00 +20°C° 0.4 mm 3 m/S 739 mmHg 73%
    13:00 +19°C° 0.9 mm 3 m/S 739 mmHg 74%
    14:00 +19°C° 0.9 mm 3 m/S 739 mmHg 76%
    15:00 +19°C° 0.9 mm 3 m/S 739 mmHg 77%
    16:00 +18°C° 0.8 mm 3 m/S 739 mmHg 81%
    17:00 +17°C° 0.8 mm 3 m/S 739 mmHg 85%
    18:00 +16°C° 0.8 mm 3 m/S 739 mmHg 88%
    19:00 +14°C° 0 mm 3 m/S 740 mmHg 89%
    20:00 +13°C° 0 mm 2 m/S 740 mmHg 90%
    21:00 +12°C° 0 mm 2 m/S 740 mmHg 91%
    22:00 +12°C° 0 mm 2 m/S 741 mmHg 90%
    23:00 +10°C° 0 mm 2 m/S 741 mmHg 89%

    10 Juni, Mittwoch

    Zeit Temperatur Niederschläge Wind Luftdruck Luftfeuchtigkeit
    00:00 +10°C° 0 mm 2 m/S 741 mmHg 89%
    01:00 +10°C° 0 mm 2 m/S 741 mmHg 90%
    02:00 +10°C° 0 mm 2 m/S 741 mmHg 91%
    03:00 +10°C° 0 mm 2 m/S 741 mmHg 92%
    04:00 +12°C° 0.3 mm 2 m/S 741 mmHg 93%
    05:00 +12°C° 0.3 mm 2 m/S 741 mmHg 94%
    06:00 +12°C° 0.3 mm 2 m/S 742 mmHg 95%
    07:00 +12°C° 0.2 mm 2 m/S 742 mmHg 94%
    08:00 +13°C° 0.2 mm 2 m/S 742 mmHg 93%
    09:00 +12°C° 0.2 mm 3 m/S 742 mmHg 92%
    10:00 +13°C° 0.1 mm 3 m/S 742 mmHg 90%
    11:00 +13°C° 0.1 mm 3 m/S 742 mmHg 87%
    12:00 +14°C° 0.1 mm 3 m/S 742 mmHg 85%
    13:00 +14°C° 0.1 mm 3 m/S 742 mmHg 83%
    14:00 +16°C° 0.1 mm 3 m/S 742 mmHg 82%
    15:00 +16°C° 0.1 mm 3 m/S 742 mmHg 80%
    16:00 +16°C° 0 mm 3 m/S 742 mmHg 81%
    17:00 +14°C° 0 mm 3 m/S 742 mmHg 81%
    18:00 +14°C° 0 mm 3 m/S 742 mmHg 82%
    19:00 +13°C° 0 mm 3 m/S 742 mmHg 85%
    20:00 +13°C° 0 mm 2 m/S 743 mmHg 88%
    21:00 +12°C° 0 mm 2 m/S 743 mmHg 91%
    22:00 +12°C° 0 mm 2 m/S 743 mmHg 92%
    23:00 +10°C° 0 mm 2 m/S 742 mmHg 93%
    Mehr zeigen